Location: Broletto
(44.6000°N, 10.5833°E)
Time: 07:15:31
(UTC+00:00)

SJ-6B - Pass Details

Date: 18 April 2021
Orbit: 510 x 580 km, 97.6° (Epoch: 05 May)

Event Time Altitude Azimuth Distance (km) Brightness Sun altitude
Exits shadow 19:36:20 - 189° (S) 2,189 5.6 -15.3°
Reaches altitude 10° 19:37:30 10° 195° (SSW) 1,725 5.2 -15.5°
Maximum altitude 19:40:55 35° 262° (W) 841 4.2 -16.0°
Drops below altitude 10° 19:44:24 10° 330° (NNW) 1,747 6.4 -16.5°
Sets 19:46:39 0° 339° (NNW) 2,646 7.3 -16.8°
